Concord, CA

7:04 AM PDT on October 21, 2017 (GMT -0700)
Buchanan

Weather History for KCCR - November, 2012

Change the Weather History Date:

Monday, November 5, 2012

  Actual Average Record
Temperature  
Mean Temperature 65 °F 58 °F  
Max Temperature 79 °F 69 °F 79 °F (2012)
Min Temperature 50 °F 46 °F 40 °F (2008)
Degree Days  
Heating Degree Days 0    
Month to date heating degree days 18  
Since 1 July heating degree days 116  
Cooling Degree Days 0    
Month to date cooling degree days 0  
Year to date cooling degree days 791  
Growing Degree Days 14 (Base 50)    
Moisture  
Dew Point 53 °F    
Average Humidity 69    
Maximum Humidity 96    
Minimum Humidity 42    
Precipitation  
Precipitation 0.00 in - 0.24 in (2011)
Month to date precipitation 0.11  
Year to date precipitation 10.83  
Since 1 July precipitation 1.16  
Sea Level Pressure  
Sea Level Pressure 30.06 in    
Wind  
Wind Speed 3 mph (NE)    
Max Wind Speed 13 mph    
Max Gust Speed 24 mph    
Visibility 10 miles    
Events      
T = Trace of Precipitation, MM = Missing Value Source: NWS Daily Summary

Daily Weather History Graph

Daily Weather History Graph

Search for Another Location

Airport or City:

Trip Planner

Search our weather history database for the weather conditions in past years. The results will help you decide how hot, cold, wet, or windy it might be!

Date:

Astronomy

Nov. 05, 2012 Rise Set
Actual Time 6:38 AM PST 5:04 PM PST
Civil Twilight 6:11 AM PST 5:31 PM PST
Nautical Twilight 5:39 AM PST 6:03 PM PST
Astronomical Twilight 5:09 AM PST 6:34 PM PST
Moon 10:47 PM PST (11/5) 12:01 PM PST (11/5)
Length of Visible Light 11h 20m
Length of Day
10h 25m
Waning Gibbous, 62% of the Moon is Illuminated
Nov 5
Waning Gibbous
Nov 6
Last Quarter
Nov 13
New
Nov 20
First Quarter
Nov 28
Full

Hourly Weather History & Observations

Time (PST) Temp. Dew Point Humidity Pressure Visibility Wind Dir Wind Speed Gust Speed Precip Events Conditions
1:53 AM 53.1 °F 51.1 °F 93% 30.11 in 10.0 mi Calm Calm - N/A   Clear
2:53 AM 53.1 °F 50.0 °F 89% 30.11 in 10.0 mi Calm Calm - N/A   Clear
4:53 AM 51.1 °F 50.0 °F 96% 30.11 in 10.0 mi Calm Calm - N/A   Clear
5:53 AM 51.1 °F 48.9 °F 92% 30.12 in 10.0 mi Calm Calm - 0.01 in   Clear
6:53 AM 50.0 °F 48.9 °F 96% 30.12 in 10.0 mi Calm Calm - N/A   Clear
7:53 AM 54.0 °F 52.0 °F 93% 30.14 in 10.0 mi Calm Calm - N/A   Clear
8:53 AM 61.0 °F 54.0 °F 78% 30.13 in 10.0 mi Calm Calm - N/A   Clear
9:53 AM 68.0 °F 57.0 °F 68% 30.12 in 9.0 mi North 6.9 mph - N/A   Clear
10:53 AM 72.0 °F 55.0 °F 55% 30.10 in 10.0 mi NNE 6.9 mph - N/A   Clear
11:53 AM 75.0 °F 54.0 °F 48% 30.07 in 10.0 mi NNE 8.1 mph - N/A   Clear
12:53 PM 75.9 °F 53.1 °F 45% 30.05 in 10.0 mi NNE 10.4 mph - N/A   Clear
1:53 PM 77.0 °F 53.1 °F 43% 30.03 in 10.0 mi NNE 9.2 mph - N/A   Clear
2:53 PM 78.1 °F 53.1 °F 42% 30.02 in 10.0 mi NE 5.8 mph - N/A   Clear
3:53 PM 77.0 °F 54.0 °F 45% 30.02 in 10.0 mi NNE 6.9 mph - N/A   Clear
4:53 PM 73.9 °F 55.0 °F 52% 30.01 in 10.0 mi ENE 3.5 mph - N/A   Clear
5:53 PM 66.9 °F 55.0 °F 66% 30.02 in 10.0 mi Calm Calm - N/A   Clear
6:53 PM 64.9 °F 55.0 °F 70% 30.02 in 10.0 mi SSE 3.5 mph - N/A   Clear
7:53 PM 62.1 °F 54.0 °F 75% 30.02 in 10.0 mi SSE 4.6 mph - N/A   Clear
8:53 PM 62.1 °F 54.0 °F 75% 30.03 in 10.0 mi Calm Calm - N/A   Clear
9:53 PM 57.0 °F 53.1 °F 87% 30.03 in 10.0 mi Calm Calm - N/A   Clear
10:53 PM 55.9 °F 53.1 °F 90% 30.02 in 10.0 mi Calm Calm - N/A   Clear
11:53 PM 55.0 °F 52.0 °F 89% 30.02 in 10.0 mi Calm Calm - N/A   Clear